Home > Time Zones > World Clock > Weather > Italy > Genoa > Past weeks

Flag for Italy Weather past 2 weeks in Genoa, Italy

Now
64 °F

Scattered clouds.


Feels Like: 64 °F
Forecast: 56 / 65 °F
Wind: 5 mph from South

Location: Genova / Sestri


UV Index: 0 (Low)

Visibility: N/A


Pressure: 29.74 "Hg

Humidity: 68%

Dew point: 54 °F

Location of GenoaLocation

Historic Weather in Genoa

°F

Genoa temperature yesterday

Maximum temperature yesterday: 59 °F (at 12:50 AM)
Minimum temperature yesterday: 48 °F (at 7:20 AM)
Average temperature yesterday: 53 °F

Past Weeks' High & Low Weather Summary

 TemperatureHumidityPressure
High75 °F (Apr 5, 2:20 PM)100% (Apr 19, 3:20 AM)30.15 "Hg (Apr 19, 3:20 AM)
Low48 °F (Apr 17, 6:50 AM)8% (Apr 15, 5:20 PM)29.56 "Hg (Apr 19, 2:50 AM)
Average59 °F68%29.98 "Hg
* Reported Apr 5 12:20 PM — Apr 20 12:50 PM, Genoa, Weather by CustomWeather, © 2014

Note: Actual official high and low records may vary slightly from our data, if they occured in-between our weather recording intervals... More about our weather records

Advertising

Historic Weather Conditions — Data for Previous 24 hours

 ConditionsComfort  
Time TempWeatherWind HumidityBarometerVisibility
12:50 PM
Apr 20
63 °FPassing clouds.7 mph73%29.74 "HgN/A
12:20 PM63 °FPassing clouds.9 mph73%29.74 "HgN/A
11:50 AM61 °FPassing clouds.9 mph63%29.71 "HgN/A
11:20 AM63 °FSunny.10 mph59%29.71 "Hg10 mi
10:50 AM63 °FSunny.9 mph59%29.71 "Hg10 mi
10:20 AM63 °FSunny.6 mph56%29.71 "Hg10 mi
9:50 AM63 °FPassing clouds.8 mph52%29.71 "HgN/A
9:20 AM59 °FPassing clouds.8 mph59%29.71 "HgN/A
8:50 AM59 °FPassing clouds.5 mph63%29.71 "HgN/A
8:20 AM57 °FPassing clouds.3 mph63%29.71 "HgN/A
7:50 AM55 °FPassing clouds.7 mph67%29.71 "HgN/A
7:20 AM54 °FClear.8 mph72%29.68 "Hg10 mi
6:50 AM54 °FPassing clouds.9 mph72%29.68 "HgN/A
6:20 AM54 °FPassing clouds.8 mph72%29.68 "HgN/A
5:50 AM54 °FClear.9 mph72%29.68 "Hg10 mi
5:20 AM54 °FClear.9 mph72%29.71 "Hg10 mi
4:50 AM54 °FClear.9 mph72%29.71 "Hg10 mi
4:20 AM54 °FClear.10 mph77%29.71 "Hg10 mi
3:50 AM54 °FPassing clouds.12 mph77%29.71 "HgN/A
3:20 AM54 °FClear.13 mph77%29.71 "Hg10 mi
2:50 AM54 °FClear.13 mph77%29.71 "Hg10 mi
2:20 AM54 °FPassing clouds.12 mph77%29.71 "HgN/A
1:50 AM54 °FClear.12 mph77%29.71 "Hg10 mi
1:20 AM54 °FPassing clouds.13 mph77%29.74 "HgN/A
12:50 AM54 °FPassing clouds.12 mph77%29.74 "HgN/A
12:20 AM54 °FPassing clouds.10 mph77%29.74 "HgN/A
11:50 PM
Apr 19
54 °FPassing clouds.10 mph77%29.74 "HgN/A
11:20 PM54 °FPassing clouds.9 mph72%29.74 "HgN/A
10:50 PM54 °FClear.10 mph77%29.71 "Hg10 mi
10:20 PM52 °FPassing clouds.8 mph77%29.71 "HgN/A
9:50 PM52 °FPassing clouds.9 mph77%29.71 "HgN/A
9:20 PM52 °FPassing clouds.8 mph77%29.71 "HgN/A
8:50 PM52 °FPartly sunny.9 mph77%29.71 "HgN/A
8:20 PM54 °FPartly sunny.9 mph72%29.71 "HgN/A
7:50 PM54 °FPartly sunny.9 mph72%29.71 "HgN/A
7:20 PM54 °FPartly sunny.3 mph72%29.68 "HgN/A
6:50 PM54 °FPartly sunny.7 mph67%29.68 "HgN/A
6:20 PM55 °FPartly sunny.7 mph63%29.68 "HgN/A
5:50 PM55 °FPartly sunny.6 mph63%29.68 "HgN/A
5:20 PM55 °FPartly sunny.6 mph63%29.68 "HgN/A
4:50 PM55 °FPartly sunny.10 mph63%29.65 "HgN/A
4:20 PM54 °FBroken clouds.9 mph72%29.65 "HgN/A
3:50 PM54 °FDrizzle. Broken clouds.6 mph77%29.65 "HgN/A
3:20 PM52 °FLight rain. Broken clouds.8 mph82%29.65 "HgN/A
2:50 PM54 °FLight rain. Broken clouds.9 mph72%29.65 "HgN/A
2:20 PM54 °FDrizzle. Broken clouds.6 mph72%29.65 "HgN/A
1:50 PM52 °FDrizzle. Broken clouds.9 mph77%29.65 "HgN/A
1:20 PM52 °FBroken clouds.10 mph77%29.65 "HgN/A
Weather by CustomWeather, © 2014

See weather overview